Flag for Canada Weather past 2 weeks in Belleville, Ontario, Canada

Now
46 °F

Clear.


Feels Like: 44 °F
Forecast: 43 / 67 °F
Wind: 6 mph from Southwest

Location: Trenton

Current Time: Sep 23, 2014 at 1:30:14 AM

Latest Report: Sep 23, 2014 at 1:00 AM


Visibility: 15 mi

Pressure: 30.19 "Hg

Humidity: 87%

Dew point: 43 °F

Location of BellevilleLocation

Historic Weather in Belleville — Graph

°F

Belleville temperature yesterday

Maximum temperature yesterday: 55 °F (at 3:00 PM)
Minimum temperature yesterday: 46 °F (at 6:00 AM)
Average temperature yesterday: 51 °F

Past Weeks' High & Low Weather Summary

 TemperatureHumidityPressure
High73 °F (Sep 8, 1:00 PM)100% (Sep 8, 1:00 AM)30.40 "Hg (Sep 8, 1:00 AM)
Low34 °F (Sep 19, 5:00 AM)43% (Sep 16, 4:00 PM)29.50 "Hg (Sep 21, 5:00 PM)
Average57 °F78%30.06 "Hg
* Reported Midnight between Sep 7 and Sep 8 — Midnight between Sep 22 and Sep 23, Belleville, Weather by CustomWeather, © 2014

Note: Actual official high and low records may vary slightly from our data, if they occured in-between our weather recording intervals... More about our weather records

Advertising

Belleville weather history for previous 24 hours

 ConditionsComfort  
Time TempWeatherWind HumidityBarometerVisibility
12:00 AM
Sep 23
48 °FClear.7 mph82%30.18 "Hg15 mi
11:00 PM
Sep 22
50 °FClear.9 mph76%30.17 "Hg15 mi
10:00 PM48 °FClear.6 mph76%30.16 "Hg15 mi
9:00 PM48 °FPassing clouds.3 mph76%30.14 "Hg15 mi
8:00 PM50 °FPassing clouds.7 mph71%30.12 "Hg15 mi
7:00 PM52 °FPassing clouds.10 mph67%30.09 "Hg15 mi
6:00 PM54 °FScattered clouds.13 mph63%30.07 "Hg15 mi
5:00 PM55 °FScattered clouds.12 mph59%30.05 "Hg15 mi
4:00 PM55 °FPartly sunny.12 mph55%30.04 "Hg15 mi
3:00 PM55 °FPartly sunny.10 mph59%30.03 "Hg15 mi
2:00 PM54 °FPartly sunny.13 mph63%30.02 "Hg15 mi
1:00 PM54 °FPartly sunny.13 mph58%30.01 "Hg15 mi
12:00 PM52 °FPartly sunny.10 mph62%30.00 "Hg15 mi
11:00 AM50 °FPartly sunny.16 mph67%29.99 "Hg15 mi
10:00 AM50 °FPartly sunny.13 mph67%29.97 "Hg15 mi
9:00 AM48 °FOvercast.8 mph71%29.95 "Hg15 mi
8:00 AM48 °FPartly sunny.12 mph71%29.93 "Hg15 mi
7:00 AM46 °FPassing clouds.9 mph82%29.89 "Hg15 mi
6:00 AM46 °FPassing clouds.12 mph82%29.84 "Hg15 mi
5:00 AM50 °FMostly cloudy.8 mph76%29.81 "Hg15 mi
4:00 AM50 °FMostly cloudy.16 mph76%29.76 "Hg15 mi
3:00 AM50 °FOvercast.7 mph88%29.75 "Hg15 mi
2:00 AM50 °FPassing clouds.13 mph88%29.72 "Hg15 mi
1:00 AM50 °FPassing clouds.10 mph88%29.70 "Hg15 mi
Weather by CustomWeather, © 2014

See weather overviewHow to use our weather pages